Time,TemperatureF,DewpointF,PressureIn,WindDirection,WindDirectionDegrees,WindSpeedMPH,WindSpeedGustMPH,Humidity,HourlyPrecipIn,Conditions,Clouds,dailyrainin,SolarRadiationWatts/m^2,SoftwareType,DateUTC
2013-01-12 00:03:00,63.0,62.0,-100.00,SSW,210,4.0,9.0,97,0.05,,,0.12,0.000000,,2013-01-12 05:03:00,
2013-01-12 00:32:00,63.0,62.0,-100.00,SSW,211,3.0,7.0,98,0.05,,,0.17,0.000000,,2013-01-12 05:32:00,
2013-01-12 00:42:00,63.0,62.0,-100.00,SSW,211,3.0,7.0,98,0.05,,,0.17,0.000000,,2013-01-12 05:42:00,
2013-01-12 00:53:00,63.0,62.0,-100.00,SSW,211,3.0,7.0,98,0.05,,,0.17,0.000000,,2013-01-12 05:53:00,
2013-01-12 01:03:00,63.0,62.0,-100.00,SSW,211,3.0,7.0,98,0.05,,,0.17,0.000000,,2013-01-12 06:03:00,
2013-01-12 01:33:00,63.0,62.0,-100.00,SSW,206,3.0,7.0,98,0.02,,,0.19,0.000000,,2013-01-12 06:33:00,
2013-01-12 01:43:00,63.0,62.0,-100.00,SSW,206,3.0,7.0,98,0.02,,,0.19,0.000000,,2013-01-12 06:43:00,
2013-01-12 01:53:00,63.0,62.0,-100.00,SSW,206,3.0,7.0,98,0.02,,,0.19,0.000000,,2013-01-12 06:53:00,
2013-01-12 02:02:00,63.0,62.0,-100.00,SSW,206,3.0,7.0,98,0.02,,,0.19,0.000000,,2013-01-12 07:02:00,
2013-01-12 02:32:00,65.0,64.0,-100.00,SSW,203,6.0,11.0,95,0.00,,,0.19,0.000000,,2013-01-12 07:32:00,
2013-01-12 02:42:00,65.0,64.0,-100.00,SSW,203,6.0,11.0,95,0.00,,,0.19,0.000000,,2013-01-12 07:42:00,
2013-01-12 02:53:00,65.0,64.0,-100.00,SSW,203,6.0,11.0,95,0.00,,,0.19,0.000000,,2013-01-12 07:53:00,
2013-01-12 03:02:00,65.0,64.0,-100.00,SSW,203,6.0,11.0,95,0.00,,,0.19,0.000000,,2013-01-12 08:02:00,
2013-01-12 03:32:00,65.0,64.0,-100.00,SSW,202,6.0,9.0,95,0.00,,,0.19,0.000000,,2013-01-12 08:32:00,
2013-01-12 03:42:00,65.0,64.0,-100.00,SSW,202,6.0,9.0,95,0.00,,,0.19,0.000000,,2013-01-12 08:42:00,
2013-01-12 03:53:00,65.0,64.0,-100.00,SSW,202,6.0,9.0,95,0.00,,,0.19,0.000000,,2013-01-12 08:53:00,
2013-01-12 04:02:00,65.0,64.0,-100.00,SSW,202,6.0,9.0,95,0.00,,,0.19,0.000000,,2013-01-12 09:02:00,
2013-01-12 04:33:00,65.0,64.0,-100.00,South,191,6.0,10.0,95,0.01,,,0.20,0.000000,,2013-01-12 09:33:00,
2013-01-12 04:43:00,65.0,64.0,-100.00,South,191,6.0,10.0,95,0.01,,,0.20,0.000000,,2013-01-12 09:43:00,
2013-01-12 04:53:00,65.0,64.0,-100.00,South,191,6.0,10.0,95,0.01,,,0.20,0.000000,,2013-01-12 09:53:00,
2013-01-12 05:02:00,65.0,64.0,-100.00,South,191,6.0,10.0,95,0.01,,,0.20,0.000000,,2013-01-12 10:02:00,
2013-01-12 05:32:00,64.0,63.0,-100.00,South,181,4.0,12.0,95,0.00,,,0.20,0.000000,,2013-01-12 10:32:00,
2013-01-12 05:43:00,64.0,63.0,-100.00,South,181,4.0,12.0,95,0.00,,,0.20,0.000000,,2013-01-12 10:43:00,
2013-01-12 05:52:00,64.0,63.0,-100.00,South,181,4.0,12.0,95,0.00,,,0.20,0.000000,,2013-01-12 10:52:00,
2013-01-12 06:02:00,64.0,63.0,-100.00,South,181,4.0,12.0,95,0.00,,,0.20,0.000000,,2013-01-12 11:02:00,
2013-01-12 06:33:00,64.0,62.0,-100.00,SSW,200,7.0,11.0,94,0.00,,,0.20,0.000000,,2013-01-12 11:33:00,
2013-01-12 06:43:00,64.0,62.0,-100.00,SSW,200,7.0,11.0,94,0.00,,,0.20,0.000000,,2013-01-12 11:43:00,
2013-01-12 06:53:00,64.0,62.0,-100.00,SSW,200,7.0,11.0,94,0.00,,,0.20,0.000000,,2013-01-12 11:53:00,
2013-01-12 07:03:00,64.0,62.0,-100.00,SSW,200,7.0,11.0,94,0.00,,,0.20,0.000000,,2013-01-12 12:03:00,
2013-01-12 07:33:00,64.0,62.0,-100.00,South,190,6.0,11.0,94,0.00,,,0.20,0.000000,,2013-01-12 12:33:00,
2013-01-12 07:43:00,64.0,62.0,-100.00,South,190,6.0,11.0,94,0.00,,,0.20,0.000000,,2013-01-12 12:43:00,
2013-01-12 07:53:00,64.0,62.0,-100.00,South,190,6.0,11.0,94,0.00,,,0.20,0.000000,,2013-01-12 12:53:00,
2013-01-12 08:02:00,64.0,62.0,-100.00,South,190,6.0,11.0,94,0.00,,,0.20,0.000000,,2013-01-12 13:02:00,
2013-01-12 08:33:00,64.0,63.0,-100.00,South,190,5.0,10.0,95,0.00,,,0.19,2.000000,,2013-01-12 13:33:00,
2013-01-12 08:43:00,64.0,63.0,-100.00,South,190,5.0,10.0,95,0.00,,,0.19,2.000000,,2013-01-12 13:43:00,
2013-01-12 08:53:00,64.0,63.0,-100.00,South,190,5.0,10.0,95,0.00,,,0.19,2.000000,,2013-01-12 13:53:00,
2013-01-12 09:02:00,64.0,63.0,-100.00,South,190,5.0,10.0,95,0.00,,,0.19,2.000000,,2013-01-12 14:02:00,
2013-01-12 09:33:00,65.0,63.0,-100.00,SW,225,5.0,10.0,94,0.00,,,0.18,17.000000,,2013-01-12 14:33:00,
2013-01-12 09:43:00,65.0,63.0,-100.00,SW,225,5.0,10.0,94,0.00,,,0.18,17.000000,,2013-01-12 14:43:00,
2013-01-12 09:53:00,65.0,63.0,-100.00,SW,225,5.0,10.0,94,0.00,,,0.18,17.000000,,2013-01-12 14:53:00,
2013-01-12 10:03:00,65.0,63.0,-100.00,SW,225,5.0,10.0,94,0.00,,,0.18,17.000000,,2013-01-12 15:03:00,
2013-01-12 10:34:00,66.0,63.0,-100.00,South,191,6.0,10.0,91,0.00,,,0.18,70.000000,,2013-01-12 15:34:00,
2013-01-12 10:43:00,66.0,63.0,-100.00,South,191,6.0,10.0,91,0.00,,,0.18,70.000000,,2013-01-12 15:43:00,
2013-01-12 10:53:00,66.0,63.0,-100.00,South,191,6.0,10.0,91,0.00,,,0.18,70.000000,,2013-01-12 15:53:00,
2013-01-12 11:03:00,66.0,63.0,-100.00,South,191,6.0,10.0,91,0.00,,,0.18,70.000000,,2013-01-12 16:03:00,
2013-01-12 11:33:00,66.0,63.0,-100.00,SSW,198,9.0,14.0,91,0.00,,,0.17,75.000000,,2013-01-12 16:33:00,
2013-01-12 11:43:00,66.0,63.0,-100.00,SSW,198,9.0,14.0,91,0.00,,,0.17,75.000000,,2013-01-12 16:43:00,
2013-01-12 11:53:00,66.0,63.0,-100.00,SSW,198,9.0,14.0,91,0.00,,,0.17,75.000000,,2013-01-12 16:53:00,
2013-01-12 12:02:00,66.0,63.0,-100.00,SSW,198,9.0,14.0,91,0.00,,,0.17,75.000000,,2013-01-12 17:02:00,
2013-01-12 12:33:00,68.0,64.0,-100.00,SSW,200,8.0,16.0,88,0.00,,,0.17,125.000000,,2013-01-12 17:33:00,
2013-01-12 12:43:00,68.0,64.0,-100.00,SSW,200,8.0,16.0,88,0.00,,,0.17,125.000000,,2013-01-12 17:43:00,
2013-01-12 12:53:00,68.0,64.0,-100.00,SSW,200,8.0,16.0,88,0.00,,,0.17,125.000000,,2013-01-12 17:53:00,
2013-01-12 13:03:00,68.0,64.0,-100.00,SSW,200,8.0,16.0,88,0.00,,,0.17,125.000000,,2013-01-12 18:03:00,
2013-01-12 13:33:00,68.0,63.0,-100.00,SSW,200,9.0,15.0,85,0.00,,,0.17,99.000000,,2013-01-12 18:33:00,
2013-01-12 13:43:00,68.0,63.0,-100.00,SSW,200,9.0,15.0,85,0.00,,,0.17,99.000000,,2013-01-12 18:43:00,
2013-01-12 13:53:00,68.0,63.0,-100.00,SSW,200,9.0,15.0,85,0.00,,,0.17,99.000000,,2013-01-12 18:53:00,
2013-01-12 14:03:00,68.0,63.0,-100.00,SSW,200,9.0,15.0,85,0.00,,,0.17,99.000000,,2013-01-12 19:03:00,
2013-01-12 14:33:00,69.0,63.0,-100.00,SSW,202,9.0,13.0,82,0.00,,,0.17,161.000000,,2013-01-12 19:33:00,
2013-01-12 14:43:00,69.0,63.0,-100.00,SSW,202,9.0,13.0,82,0.00,,,0.17,161.000000,,2013-01-12 19:43:00,
2013-01-12 14:53:00,69.0,63.0,-100.00,SSW,202,9.0,13.0,82,0.00,,,0.17,161.000000,,2013-01-12 19:53:00,
2013-01-12 15:03:00,69.0,63.0,-100.00,SSW,202,9.0,13.0,82,0.00,,,0.17,161.000000,,2013-01-12 20:03:00,
2013-01-12 15:33:00,68.0,64.0,-100.00,SSW,203,5.0,11.0,87,0.00,,,0.17,70.000000,,2013-01-12 20:33:00,
2013-01-12 15:43:00,68.0,64.0,-100.00,SSW,203,5.0,11.0,87,0.00,,,0.17,70.000000,,2013-01-12 20:43:00,
2013-01-12 15:53:00,68.0,64.0,-100.00,SSW,203,5.0,11.0,87,0.00,,,0.17,70.000000,,2013-01-12 20:53:00,
2013-01-12 16:03:00,68.0,64.0,-100.00,SSW,203,5.0,11.0,87,0.00,,,0.17,70.000000,,2013-01-12 21:03:00,
2013-01-12 16:33:00,69.0,62.0,-100.00,South,185,7.0,12.0,79,0.00,,,0.17,99.000000,,2013-01-12 21:33:00,
2013-01-12 16:43:00,69.0,62.0,-100.00,South,185,7.0,12.0,79,0.00,,,0.17,99.000000,,2013-01-12 21:43:00,
2013-01-12 16:53:00,69.0,62.0,-100.00,South,185,7.0,12.0,79,0.00,,,0.17,99.000000,,2013-01-12 21:53:00,
2013-01-12 17:03:00,69.0,62.0,-100.00,South,185,7.0,12.0,79,0.00,,,0.17,99.000000,,2013-01-12 22:03:00,
2013-01-12 17:33:00,69.0,62.0,-100.00,SSW,204,5.0,11.0,78,0.00,,,0.17,35.000000,,2013-01-12 22:33:00,
2013-01-12 17:43:00,69.0,62.0,-100.00,SSW,204,5.0,11.0,78,0.00,,,0.17,35.000000,,2013-01-12 22:43:00,
2013-01-12 17:53:00,69.0,62.0,-100.00,SSW,204,5.0,11.0,78,0.00,,,0.17,35.000000,,2013-01-12 22:53:00,
2013-01-12 18:03:00,69.0,62.0,-100.00,SSW,204,5.0,11.0,78,0.00,,,0.17,35.000000,,2013-01-12 23:03:00,
2013-01-12 18:33:00,69.0,62.0,-100.00,SSW,208,5.0,8.0,78,0.00,,,0.16,8.000000,,2013-01-12 23:33:00,
2013-01-12 18:43:00,69.0,62.0,-100.00,SSW,208,5.0,8.0,78,0.00,,,0.16,8.000000,,2013-01-12 23:43:00,
2013-01-12 18:53:00,69.0,62.0,-100.00,SSW,208,5.0,8.0,78,0.00,,,0.16,8.000000,,2013-01-12 23:53:00,
2013-01-12 19:03:00,69.0,62.0,-100.00,SSW,208,5.0,8.0,78,0.00,,,0.16,8.000000,,2013-01-13 00:03:00,
2013-01-12 19:33:00,69.0,61.0,-100.00,SSW,197,8.0,13.0,75,0.00,,,0.14,0.000000,,2013-01-13 00:33:00,
2013-01-12 19:43:00,69.0,61.0,-100.00,SSW,197,8.0,13.0,75,0.00,,,0.14,0.000000,,2013-01-13 00:43:00,
2013-01-12 19:53:00,69.0,61.0,-100.00,SSW,197,8.0,13.0,75,0.00,,,0.14,0.000000,,2013-01-13 00:53:00,
2013-01-12 20:03:00,69.0,61.0,-100.00,SSW,197,8.0,13.0,75,0.00,,,0.14,0.000000,,2013-01-13 01:03:00,
2013-01-12 20:33:00,69.0,60.0,-100.00,South,190,6.0,13.0,74,0.00,,,0.14,0.000000,,2013-01-13 01:33:00,
2013-01-12 20:43:00,69.0,60.0,-100.00,South,190,6.0,13.0,74,0.00,,,0.14,0.000000,,2013-01-13 01:43:00,
2013-01-12 20:53:00,69.0,60.0,-100.00,South,190,6.0,13.0,74,0.00,,,0.14,0.000000,,2013-01-13 01:53:00,
2013-01-12 21:02:00,69.0,60.0,-100.00,South,190,6.0,13.0,74,0.00,,,0.14,0.000000,,2013-01-13 02:02:00,
2013-01-12 21:33:00,69.0,60.0,-100.00,South,182,9.0,20.0,72,0.00,,,0.14,0.000000,,2013-01-13 02:33:00,
2013-01-12 21:43:00,69.0,60.0,-100.00,South,182,9.0,20.0,72,0.00,,,0.14,0.000000,,2013-01-13 02:43:00,
2013-01-12 21:53:00,69.0,60.0,-100.00,South,182,9.0,20.0,72,0.00,,,0.14,0.000000,,2013-01-13 02:53:00,
2013-01-12 22:03:00,69.0,60.0,-100.00,South,182,9.0,20.0,72,0.00,,,0.14,0.000000,,2013-01-13 03:03:00,
2013-01-12 22:33:00,67.0,58.0,-100.00,SSW,197,7.0,15.0,72,0.00,,,0.13,0.000000,,2013-01-13 03:33:00,
2013-01-12 22:43:00,67.0,58.0,-100.00,SSW,197,7.0,15.0,72,0.00,,,0.13,0.000000,,2013-01-13 03:43:00,
2013-01-12 22:53:00,67.0,58.0,-100.00,SSW,197,7.0,15.0,72,0.00,,,0.13,0.000000,,2013-01-13 03:53:00,
2013-01-12 23:03:00,67.0,58.0,-100.00,SSW,197,7.0,15.0,72,0.00,,,0.13,0.000000,,2013-01-13 04:03:00,
2013-01-12 23:33:00,65.0,58.0,-100.00,South,184,5.0,11.0,77,0.00,,,0.08,0.000000,,2013-01-13 04:33:00,
2013-01-12 23:43:00,65.0,58.0,-100.00,South,184,5.0,11.0,77,0.00,,,0.08,0.000000,,2013-01-13 04:43:00,
2013-01-12 23:53:00,65.0,58.0,-100.00,South,184,5.0,11.0,77,0.00,,,0.08,0.000000,,2013-01-13 04:53:00,